Location: Newark
(45.7172°N, 12.2962°E)
Time: 02:01:54
(UTC+00:00)

N. Korean satellite - Visible Passes

Search period start: 09 December 2019 00:00
Search period end: 19 December 2019 00:00
Orbit: 456 x 506 km, 97.2° (Epoch: 07 December)

Date Brightness Start Highest point End Pass type
(mag) Time Alt. Az. Time Alt. Az. Time Alt. Az.
09 Dec 10.1 03:56:18 10° ENE 03:57:10 11° E 03:58:02 10° ESE visible
09 Dec 6.6 05:27:26 10° N 05:30:55 52° WNW 05:34:19 10° SSW visible
09 Dec 6.6 16:04:26 10° SSE 16:08:08 77° ENE 16:11:51 10° N visible
10 Dec 6.7 05:01:57 10° NNE 05:05:30 72° E 05:08:58 10° S visible
10 Dec 9.8 17:13:53 10° SW 17:16:19 17° W 17:18:45 10° NW visible
11 Dec 8.3 04:36:45 10° NNE 04:40:00 33° E 04:43:10 10° SSE visible
11 Dec 8.7 16:47:23 10° SSW 16:50:44 31° W 16:54:03 10° NNW visible
12 Dec 9.5 04:12:02 10° NE 04:14:24 17° E 04:16:43 10° SE visible
12 Dec 7.2 05:44:43 10° N 05:47:54 32° WNW 05:51:01 10° SW visible
12 Dec 7.1 16:21:33 10° S 16:25:13 64° W 16:28:54 10° NNW visible
13 Dec 6.4 05:19:02 10° N 05:22:33 67° WNW 05:25:59 10° SSW visible
13 Dec 6.6 15:56:09 10° SSE 15:59:48 61° ENE 16:03:26 10° N visible
13 Dec 10.3 17:32:52 10° W 17:33:33 10° W 17:34:15 10° WNW visible
14 Dec 7.2 04:53:38 10° NNE 04:57:06 55° E 05:00:30 10° S visible
14 Dec 9.5 17:05:07 10° SW 17:07:54 20° W 17:10:40 10° NW visible
15 Dec 8.8 04:28:33 10° NE 04:31:34 26° E 04:34:31 10° SSE visible
15 Dec 7.8 06:02:09 10° NNW 06:04:49 21° WNW 06:07:27 10° WSW visible
15 Dec 8.2 16:38:51 10° SSW 16:42:19 38° W 16:45:47 10° NNW visible
16 Dec 9.8 04:04:08 10° ENE 04:05:55 13° E 04:07:41 10° ESE visible
16 Dec 6.9 05:36:14 10° N 05:39:32 39° WNW 05:42:46 10° SW visible
16 Dec 6.7 16:13:09 10° S 16:16:50 82° WSW 16:20:31 10° NNW visible
17 Dec 6.4 05:10:38 10° NNE 05:14:09 86° W 05:17:35 10° SSW visible
17 Dec 10.0 17:23:22 10° WSW 17:25:05 13° W 17:26:49 10° WNW visible
18 Dec 7.7 04:45:19 10° NNE 04:48:39 42° E 04:51:56 10° S visible
18 Dec 9.2 16:56:25 10° SSW 16:59:27 24° W 17:02:29 10° NW visible
